CW3590 Weather Reports


Display with metric or nautical units.
time (UTC)temp
F
wind
direction
speed
MPH
gust
MPH
rain 1hr
in
rain 24hr
in
rain mn
in
humidity
%
barometer
mb
20260904194013 92 195 1.0 2.0 0.00 0.00 0.00 60 1012.6
20260904193013 92 211 1.0 5.0 0.00 0.00 0.00 60 1012.6
20260904191016 91 209 2.0 5.0 0.00 0.00 0.00 58 1012.9
20260904190014 91 121 1.0 5.0 0.00 0.00 0.00 57 1013.0
20260904185013 91 176 2.0 3.0 0.00 0.00 0.00 59 1012.9
20260904184013 92 168 2.0 5.0 0.00 0.00 0.00 60 1013.0
20260904183013 91 128 2.0 5.0 0.00 0.00 0.00 59 1013.2
20260904182013 90 167 2.0 4.0 0.00 0.00 0.00 60 1013.3
20260904181013 90 190 2.0 5.0 0.00 0.00 0.00 59 1013.6
20260904180014 90 177 2.0 5.0 0.00 0.00 0.00 63 1013.6
20260904175014 90 203 2.0 5.0 0.00 0.00 0.00 61 1013.8
20260904173014 88 169 1.0 3.0 0.00 0.00 0.00 67 1014.0
20260904172013 88 156 2.0 4.0 0.00 0.00 0.00 67 1014.2
20260904171013 88 131 1.0 3.0 0.00 0.00 0.00 68 1014.5
20260904170014 88 130 2.0 4.0 0.00 0.00 0.00 67 1014.4
20260904165013 88 249 1.0 3.0 0.00 0.00 0.00 70 1014.4
20260904164013 87 143 1.0 5.0 0.00 0.00 0.00 72 1014.5
20260904163013 86 229 2.0 4.0 0.00 0.00 0.00 73 1014.6
20260904162013 86 253 1.0 5.0 0.00 0.00 0.00 75 1014.5
20260904161013 83 270 1.0 4.0 0.00 0.00 0.00 81 1014.5
20260904160013 82 255 1.0 4.0 0.00 0.00 0.00 83 1014.6
20260904155013 82 224 1.0 4.0 0.00 0.00 0.00 87 1014.6
20260904154013 81 233 1.0 3.0 0.00 0.00 0.00 90 1014.5
20260904153013 81 151 1.0 5.0 0.00 0.00 0.00 91 1014.5
20260904152014 81 130 1.0 2.0 0.00 0.00 0.00 93 1014.5
20260904151013 80 157 1.0 4.0 0.00 0.00 0.00 94 1014.4
20260904150013 80 89 1.0 3.0 0.00 0.00 0.00 94 1014.3
20260904145013 79 101 2.0 3.0 0.00 0.00 0.00 94 1014.5
20260904144013 79 178 1.0 4.0 0.00 0.00 0.00 94 1014.6
20260904142013 78 111 1.0 3.0 0.00 0.00 0.00 94 1014.5
20260904141013 77 85 1.0 2.0 0.00 0.00 0.00 94 1014.4
20260904135013 76 74 0.0 2.0 0.00 0.00 0.00 93 1014.2
20260904134012 75 116 1.0 2.0 0.00 0.00 0.00 92 1014.2
20260904133013 75 122 0.0 3.0 0.00 0.00 0.00 92 1014.2
20260904132013 75 0 0.0 0.0 0.00 0.00 0.00 91 1014.1
20260904130013 74 0 0.0 0.0 0.00 0.00 0.00 91 1013.9
20260904125013 74 0 0.0 0.0 0.00 0.01 0.00 91 1013.8
20260904124013 74 0 0.0 0.0 0.00 0.01 0.00 91 1013.6
20260904123014 74 0 0.0 0.0 0.00 0.01 0.00 91 1013.6
20260904122012 74 0 0.0 0.0 0.00 0.01 0.00 91 1013.6
20260904121013 74 0 0.0 0.0 0.00 0.01 0.00 91 1013.5
20260904114013 75 0 0.0 0.0 0.00 0.01 0.00 90 1013.2
20260904112013 75 0 0.0 0.0 0.00 0.01 0.00 90 1013.2
20260904111012 75 0 0.0 0.0 0.00 0.01 0.00 90 1013.2
20260904110013 75 0 0.0 0.0 0.00 0.01 0.00 90 1013.2
20260904104013 75 0 0.0 0.0 0.00 0.01 0.00 90 1013.1
20260904103013 75 0 0.0 0.0 0.00 0.01 0.00 90 1013.1
20260904102013 75 0 0.0 0.0 0.00 0.01 0.00 90 1013.0
20260904100013 75 0 0.0 0.0 0.00 0.02 0.00 90 1012.8
20260904095013 76 0 0.0 1.0 0.00 0.02 0.00 89 1012.7
20260904094013 76 0 0.0 1.0 0.00 0.03 0.00 89 1012.6
20260904093012 76 0 0.0 1.0 0.00 0.03 0.00 89 1012.5
20260904092013 76 0 0.0 0.0 0.00 0.04 0.00 89 1012.5
20260904091012 76 0 0.0 0.0 0.00 0.04 0.00 89 1012.6
20260904090013 76 0 0.0 0.0 0.00 0.05 0.00 90 1012.6
20260904084013 76 0 0.0 1.0 0.00 0.09 0.00 90 1012.6
20260904083013 77 0 0.0 1.0 0.00 0.09 0.00 90 1012.5
20260904082012 76 0 0.0 1.0 0.00 0.09 0.00 89 1012.4
20260904081012 76 0 0.0 0.0 0.00 0.10 0.00 88 1012.3
20260904080012 77 0 0.0 0.0 0.00 0.11 0.00 87 1012.3
20260904075012 77 0 0.0 0.0 0.00 0.12 0.00 87 1012.4
20260904074014 77 0 0.0 0.0 0.00 0.13 0.00 87 1012.3
20260904073013 77 0 0.0 0.0 0.00 0.14 0.00 86 1012.4
20260904071012 78 0 0.0 0.0 0.00 0.22 0.00 86 1012.4
20260904065013 78 0 0.0 0.0 0.00 0.30 0.00 87 1012.6
20260904064012 78 0 0.0 1.0 0.00 0.35 0.00 87 1012.5
20260904063013 79 0 0.0 0.0 0.00 0.38 0.00 87 1012.4
20260904062012 79 0 0.0 1.0 0.00 0.44 0.00 87 1012.4
20260904060012 79 0 0.0 1.0 0.00 0.93 0.00 86 1012.4
20260904055013 79 0 0.0 0.0 0.00 1.08 0.00 86 1012.3
20260904052013 80 0 0.0 1.0 0.00 1.11 0.00 85 1012.2
20260904051012 80 0 0.0 1.0 0.00 1.11 0.00 84 1012.3
20260904050014 80 0 0.0 1.0 0.00 1.11 0.00 83 1012.4
20260904045012 80 0 0.0 1.0 0.00 1.11 1.11 83 1012.5
20260904043013 80 0 0.0 1.0 0.00 1.11 1.11 81 1012.7
20260904042013 81 0 0.0 2.0 0.00 1.11 1.11 80 1012.7
20260904041012 81 0 0.0 1.0 0.00 1.11 1.11 80 1012.6
20260904034012 82 0 0.0 1.0 0.00 1.11 1.11 79 1012.6
20260904033012 82 0 0.0 1.0 0.00 1.11 1.11 79 1012.7
20260904032012 82 131 0.0 1.0 0.00 1.11 1.11 78 1012.7
20260904031012 82 131 1.0 2.0 0.00 1.11 1.11 78 1012.5
20260904025012 83 131 1.0 2.0 0.00 1.13 1.11 76 1012.3
20260904024012 83 0 0.0 2.0 0.00 1.15 1.11 75 1012.3
20260904023013 84 0 0.0 0.0 0.00 1.17 1.11 74 1012.2
20260904022012 84 130 0.0 1.0 0.00 1.20 1.11 74 1012.0
20260904021012 84 130 1.0 1.0 0.00 1.24 1.11 73 1011.8
20260904015012 85 0 0.0 0.0 0.00 1.35 1.11 72 1011.6
20260904014012 85 158 1.0 1.0 0.00 1.35 1.11 72 1011.5
20260904013012 85 159 1.0 2.0 0.00 1.35 1.11 72 1011.3
20260904012012 86 0 0.0 2.0 0.00 1.36 1.11 71 1011.2
20260904011012 86 0 0.0 0.0 0.00 1.36 1.11 71 1011.1
20260904010012 86 160 0.0 1.0 0.00 1.36 1.11 70 1011.0
20260904005012 86 160 1.0 2.0 0.00 1.36 1.11 70 1010.9
20260904003014 87 159 0.0 3.0 0.00 1.36 1.11 69 1010.9
20260904002013 87 158 2.0 3.0 0.00 1.36 1.11 68 1010.8
20260904001012 88 154 2.0 4.0 0.00 1.36 1.11 67 1010.8
20260903235012 88 169 1.0 5.0 0.00 1.36 1.11 67 1010.7
20260903234012 88 172 1.0 3.0 0.00 1.36 1.11 66 1010.7
20260903233012 89 193 1.0 2.0 0.00 1.36 1.11 67 1010.7
20260903232013 89 177 1.0 5.0 0.00 1.36 1.11 66 1010.7
20260903231012 89 186 2.0 5.0 0.00 1.36 1.11 64 1010.7
20260903225012 89 175 1.0 3.0 0.00 1.36 1.11 64 1010.8
20260903224012 89 147 2.0 4.0 0.00 1.36 1.11 65 1010.9
20260903223012 89 146 2.0 4.0 0.00 1.36 1.11 65 1010.9
20260903222012 90 172 1.0 7.0 0.00 1.36 1.11 64 1011.0
20260903221012 89 137 1.0 4.0 0.00 1.36 1.11 65 1011.0
20260903220012 88 148 1.0 3.0 0.00 1.36 1.11 67 1011.1
20260903215012 88 150 2.0 4.0 0.00 1.36 1.11 66 1011.2
20260903213012 89 161 2.0 5.0 0.00 1.36 1.11 65 1011.4
20260903212012 90 172 2.0 3.0 0.00 1.36 1.11 64 1011.4
20260903211012 90 145 2.0 5.0 0.00 1.36 1.11 64 1011.5
20260903205012 89 145 1.0 3.0 0.00 1.36 1.11 67 1011.6
20260903203012 88 184 2.0 6.0 0.00 1.36 1.11 66 1011.6
20260903202011 88 156 2.0 4.0 0.00 1.36 1.11 66 1011.8
20260903201012 88 230 1.0 3.0 0.00 1.36 1.11 68 1011.9
20260903200012 87 103 1.0 5.0 0.00 1.36 1.11 70 1012.1